User: anonymous   Login
Location: Unspecified
(0.0000°N, 0.0000°E)
Time: 01:33:09
(UTC+00:00)
Language:

AO-27 - Orbit

View from above orbital plane
View from above orbital plane
View from above satellite
View from above satellite

Ground track
Ground track

The orbit data is extracted from the following two-line orbital elements,

1 22825U 93061C   17117.88429787 +.00000000 +00000-0 +17814-4 0  9993
2 22825 098.8074 082.8612 0009397 115.0229 245.1929 14.29993727229943
Epoch (UTC): 27 April 2017 21:13:23
Eccentricity: 0.0009397
inclination: 98.8074°
perigee height: 785 km
apogee height: 798 km
right ascension of ascending node: 82.8612°
argument of perigee: 115.0229°
revolutions per day: 14.29993727
mean anomaly at epoch: 245.1929°
orbit number at epoch: 22994

The dashed part of the orbit path shows where the satellite is in the earth's shadow,  

DLR